FW0135 Weather Reports


Display with metric or nautical units.
time (UTC)temp
F
wind
direction
speed
MPH
gust
MPH
rain 1hr
in
rain 24hr
in
rain mn
in
humidity
%
barometer
mb
20260509210730 45 66 0.0 2.0 0.08 0.57 0.57 92 998.3
20260509205730 45 66 0.0 0.0 0.09 0.55 0.56 91 998.4
20260509204726 46 66 0.0 1.0 0.09 0.54 0.54 92 998.7
20260509204225 46 66 0.0 1.0 0.10 0.53 0.53 92 998.4
20260509203725 46 66 0.0 1.0 0.11 0.53 0.53 91 998.4
20260509202226 46 66 0.0 2.0 0.10 0.50 0.50 91 998.6
20260509201725 46 66 0.0 2.0 0.11 0.50 0.50 91 998.5
20260509200726 46 66 0.0 1.0 0.12 0.49 0.49 91 998.3
20260509200225 46 66 0.0 0.0 0.10 0.47 0.48 91 998.4
20260509195726 46 66 0.0 0.0 0.10 0.46 0.47 91 998.6
20260509195226 46 66 0.0 1.0 0.11 0.46 0.46 91 998.5
20260509194225 46 66 0.0 1.0 0.09 0.43 0.43 91 998.7
20260509193226 46 66 0.0 1.0 0.09 0.41 0.42 91 998.4
20260509192726 46 66 0.0 0.0 0.10 0.41 0.41 91 998.4
20260509191720 46 66 0.0 2.0 0.09 0.39 0.39 91 998.7
20260509190202 46 66 0.0 3.0 0.10 0.37 0.37 91 998.7
20260509185656 46 66 0.0 3.0 0.10 0.36 0.36 91 998.8
20260509185150 46 73 0.0 0.0 0.09 0.35 0.35 91 998.8
20260509184643 46 73 0.0 0.0 0.10 0.35 0.35 91 998.9
20260509184139 46 73 0.0 0.0 0.10 0.34 0.34 91 999.0
20260509183631 46 73 0.0 0.0 0.10 0.33 0.33 91 999.1
20260509183126 46 73 0.0 0.0 0.10 0.32 0.32 91 999.3
20260509182619 46 73 0.0 0.0 0.10 0.31 0.31 91 999.4
20260509182114 46 73 0.0 0.0 0.10 0.30 0.30 91 999.3
20260509181607 46 73 0.0 0.0 0.10 0.29 0.29 91 999.3
20260509181102 46 73 0.0 0.0 0.11 0.29 0.29 91 999.3
20260509180556 45 73 0.0 0.0 0.12 0.28 0.28 91 999.3
20260509180050 45 73 0.0 0.0 0.12 0.27 0.27 91 999.5
20260509175543 45 73 0.0 0.0 0.12 0.26 0.26 91 999.5
20260509175037 45 73 0.0 0.0 0.12 0.26 0.26 90 999.6
20260509174531 45 73 0.0 0.0 0.12 0.25 0.25 90 999.6
20260509174025 45 73 0.0 0.0 0.11 0.24 0.24 90 999.6
20260509172507 45 73 0.0 0.0 0.10 0.21 0.21 90 999.7
20260509172002 45 73 0.0 0.0 0.09 0.19 0.20 90 999.6
20260509171456 45 73 0.0 0.0 0.08 0.18 0.19 90 999.7
20260509170950 45 73 0.0 0.0 0.07 0.17 0.17 90 999.5
20260509170444 45 73 0.0 0.0 0.07 0.16 0.16 90 999.6
20260509165938 45 73 0.0 0.0 0.06 0.15 0.15 90 999.7
20260509165432 45 73 0.0 0.0 0.06 0.14 0.14 90 999.7
20260509164925 45 73 0.0 0.0 0.06 0.14 0.14 89 999.6
20260509164420 45 73 0.0 1.0 0.06 0.13 0.13 89 999.6
20260509163408 45 73 0.0 1.0 0.06 0.12 0.12 89 999.7
20260509162902 45 73 0.0 0.0 0.06 0.11 0.12 89 999.7
20260509162356 45 73 0.0 0.0 0.06 0.11 0.11 89 999.8
20260509161849 45 73 0.0 0.0 0.05 0.10 0.10 89 999.9
20260509160332 45 73 1.0 2.0 0.06 0.09 0.09 89 1000.0
20260509155825 45 73 0.0 2.0 0.05 0.08 0.09 89 1000.1
20260509155320 45 73 0.0 2.0 0.05 0.08 0.08 89 1000.2
20260509154813 45 73 0.0 2.0 0.05 0.07 0.08 88 1000.2
20260509154307 45 73 0.0 1.0 0.05 0.07 0.07 88 1000.3
20260509153802 46 73 0.0 1.0 0.04 0.06 0.06 88 1000.4
20260509153256 46 73 0.0 1.0 0.05 0.06 0.06 88 1000.5
20260509152749 46 73 0.0 0.0 0.04 0.05 0.05 88 1000.4
20260509152243 45 73 0.0 1.0 0.04 0.05 0.05 88 1000.4
20260509151737 45 73 0.0 1.0 0.04 0.05 0.05 88 1000.4
20260509151232 45 73 0.0 3.0 0.03 0.04 0.04 87 1000.4
20260509150725 46 73 0.0 3.0 0.04 0.04 0.04 87 1000.4
20260509150220 46 350 0.0 2.0 0.03 0.03 0.03 87 1000.4
20260509145714 46 350 0.0 3.0 0.03 0.03 0.03 87 1000.4
20260509145207 46 350 0.0 3.0 0.03 0.03 0.03 87 1000.3
20260509144707 47 316 0.0 0.0 0.02 0.02 0.02 87 1000.3
20260509144205 47 316 0.0 0.0 0.02 0.02 0.02 87 1000.2
20260509143205 47 316 0.0 0.0 0.01 0.01 0.01 86 1000.1
20260509142704 47 316 0.0 0.0 0.01 0.01 0.01 87 1000.1
20260509141700 47 316 0.0 0.0 0.01 0.01 0.01 86 1000.0
20260509141200 47 316 0.0 0.0 0.01 0.01 0.01 87 1000.0
20260509140701 46 316 0.0 0.0 0.00 0.00 0.00 86 1000.0
20260509140158 47 316 0.0 0.0 0.00 0.00 0.00 86 999.9
20260509135656 46 316 0.0 0.0 0.00 0.00 0.00 86 999.9
20260509135156 46 316 0.0 0.0 0.00 0.00 0.00 86 1000.0
20260509134658 46 316 0.0 0.0 0.00 0.00 0.00 85 999.9
20260509134158 46 316 0.0 0.0 0.00 0.00 0.00 84 1000.0
20260509133656 46 316 0.0 0.0 0.00 0.00 0.00 84 1000.0
20260509133156 46 316 0.0 0.0 0.00 0.00 0.00 83 1000.0
20260509132656 46 316 0.0 0.0 0.00 0.00 0.00 82 999.9
20260509132151 46 316 0.0 2.0 0.00 0.00 0.00 80 999.9
20260509131650 45 316 0.0 2.0 0.00 0.00 0.00 79 999.9
20260509131152 45 316 0.0 1.0 0.00 0.00 0.00 78 999.9
20260509130651 45 316 0.0 1.0 0.00 0.00 0.00 78 999.9
20260509130152 45 316 0.0 1.0 0.00 0.00 0.00 79 999.9
20260509125650 44 316 0.0 2.0 0.00 0.00 0.00 80 999.9
20260509125152 44 316 0.0 2.0 0.00 0.00 0.00 80 1000.0
20260509124651 44 316 0.0 1.0 0.00 0.00 0.00 80 1000.1
20260509124151 43 316 0.0 1.0 0.00 0.00 0.00 80 1000.2
20260509123151 43 316 0.0 1.0 0.00 0.00 0.00 80 1000.2
20260509122652 43 311 0.0 0.0 0.00 0.00 0.00 81 1000.4
20260509122151 42 311 0.0 0.0 0.00 0.00 0.00 82 1000.3
20260509121650 42 311 0.0 0.0 0.00 0.00 0.00 82 1000.2
20260509121151 42 311 0.0 0.0 0.00 0.00 0.00 82 1000.2
20260509120652 42 311 0.0 0.0 0.00 0.00 0.00 82 1000.3
20260509115649 41 311 0.0 0.0 0.00 0.00 0.00 85 1000.2
20260509115143 40 311 0.0 0.0 0.00 0.00 0.00 85 1000.2
20260509114132 40 311 0.0 0.0 0.00 0.00 0.00 86 1000.3
20260509113626 39 311 0.0 0.0 0.00 0.00 0.00 86 1000.3
20260509112108 38 311 0.0 0.0 0.00 0.00 0.00 87 1000.3
20260509111602 38 311 0.0 0.0 0.00 0.00 0.00 87 1000.3
20260509111056 38 311 0.0 0.0 0.00 0.00 0.00 88 1000.4
20260509110550 37 311 0.0 0.0 0.00 0.00 0.00 88 1000.4
20260509110044 37 311 0.0 0.0 0.00 0.00 0.00 89 1000.4
20260509104525 36 311 0.0 0.0 0.00 0.00 0.00 89 1000.4
20260509104020 35 311 0.0 0.0 0.00 0.00 0.00 89 1000.3
20260509103514 35 311 0.0 0.0 0.00 0.00 0.00 89 1000.3
20260509103008 35 311 0.0 0.0 0.00 0.00 0.00 89 1000.3
20260509101450 34 311 0.0 0.0 0.00 0.00 0.00 89 1000.3
20260509100943 33 311 0.0 0.0 0.00 0.00 0.00 89 1000.3
20260509100438 33 311 0.0 0.0 0.00 0.00 0.00 89 1000.2
20260509095931 33 311 0.0 0.0 0.00 0.00 0.00 89 1000.1
20260509095425 33 311 0.0 0.0 0.00 0.00 0.00 89 1000.0
20260509094920 33 311 0.0 0.0 0.00 0.00 0.00 89 1000.0
20260509094414 33 311 0.0 0.0 0.00 0.00 0.00 89 999.9
20260509093907 33 311 0.0 0.0 0.00 0.00 0.00 88 999.8
20260509093402 33 311 0.0 0.0 0.00 0.00 0.00 88 999.8
20260509092856 33 311 0.0 0.0 0.00 0.00 0.00 88 999.7
20260509092350 33 311 0.0 0.0 0.00 0.00 0.00 88 999.7
20260509091844 33 311 0.0 0.0 0.00 0.00 0.00 88 999.7
20260509091339 33 311 0.0 0.0 0.00 0.00 0.00 88 999.6
20260509090832 33 311 0.0 0.0 0.00 0.00 0.00 88 999.5
20260509090326 33 311 0.0 0.0 0.00 0.00 0.00 88 999.5
20260509085820 33 311 0.0 0.0 0.00 0.00 0.00 88 999.4
20260509085313 33 311 0.0 0.0 0.00 0.00 0.00 88 999.4
20260509084808 33 311 0.0 0.0 0.00 0.00 0.00 87 999.1
20260509084302 33 311 0.0 0.0 0.00 0.00 0.00 87 999.1
20260509083756 34 311 0.0 0.0 0.00 0.00 0.00 87 999.1
20260509083250 34 311 0.0 0.0 0.00 0.00 0.00 87 999.2
20260509082237 34 311 0.0 0.0 0.00 0.00 0.00 87 999.0
20260509081731 34 311 0.0 0.0 0.00 0.00 0.00 87 999.0
20260509081227 34 311 0.0 0.0 0.00 0.00 0.00 87 999.0
20260509080720 35 311 0.0 0.0 0.00 0.00 0.00 87 999.1
20260509080214 35 311 0.0 0.0 0.00 0.00 0.00 86 999.1
20260509075708 35 311 0.0 0.0 0.00 0.00 0.00 86 999.1
20260509075202 35 311 0.0 0.0 0.00 0.00 0.00 86 999.1
20260509074656 35 311 0.0 0.0 0.00 0.00 0.00 86 999.1
20260509074146 35 311 0.0 0.0 0.00 0.00 0.00 85 999.2
20260509073640 35 311 0.0 0.0 0.00 0.00 0.00 85 999.2
20260509073133 36 311 0.0 0.0 0.00 0.00 0.00 85 999.0
20260509072628 36 311 0.0 0.0 0.00 0.00 0.00 85 999.0
20260509072122 36 311 0.0 0.0 0.00 0.00 0.00 85 999.0
20260509070605 36 311 0.0 0.0 0.00 0.00 0.00 85 999.1
20260509070107 36 311 0.0 0.0 0.00 0.00 0.00 85 999.2
20260509065604 36 311 0.0 0.0 0.00 0.00 0.00 85 999.2
20260509064604 37 311 0.0 0.0 0.00 0.00 0.00 85 999.2
20260509064106 37 311 0.0 0.0 0.00 0.00 0.00 84 999.3
20260509063603 37 311 0.0 0.0 0.00 0.00 0.00 84 999.2
20260509062603 37 311 0.0 0.0 0.00 0.00 0.00 84 999.2
20260509062101 37 311 0.0 0.0 0.00 0.00 0.00 84 999.3
20260509061559 37 311 0.0 0.0 0.00 0.00 0.00 83 999.3
20260509061057 38 311 0.0 0.0 0.00 0.00 0.00 83 999.4
20260509060554 38 311 0.0 0.0 0.00 0.00 0.00 83 999.3
20260509060054 38 311 0.0 0.0 0.00 0.00 0.00 83 999.3
20260509055553 38 311 0.0 0.0 0.00 0.00 0.00 83 999.3
20260509055054 38 311 0.0 0.0 0.00 0.00 0.00 82 999.3
20260509054551 38 311 0.0 0.0 0.00 0.00 0.00 82 999.2
20260509054050 39 311 0.0 0.0 0.00 0.00 0.00 82 999.2
20260509053551 39 311 0.0 0.0 0.00 0.00 0.00 81 999.1
20260509053050 39 311 0.0 0.0 0.00 0.00 0.00 81 999.1
20260509052549 39 311 0.0 0.0 0.00 0.00 0.00 81 999.1
20260509052049 39 311 0.0 0.0 0.00 0.00 0.00 81 999.0
20260509051550 39 311 0.0 0.0 0.00 0.00 0.00 81 999.0
20260509051049 39 311 0.0 0.0 0.00 0.00 0.00 81 998.9
20260509050550 40 311 0.0 0.0 0.00 0.00 0.00 81 998.9
20260509050050 40 311 0.0 0.0 0.00 0.00 0.00 80 998.9
20260509045551 40 311 0.0 0.0 0.00 0.00 0.00 80 998.9
20260509045050 40 311 0.0 0.0 0.00 0.00 0.00 80 998.9
20260509044550 40 311 0.0 0.0 0.00 0.00 0.00 80 998.8
20260509044049 40 311 0.0 0.0 0.00 0.00 0.00 79 998.9
20260509043050 41 311 0.0 0.0 0.00 0.00 0.00 80 998.8
20260509042549 41 311 0.0 0.0 0.00 0.00 0.00 79 998.8
20260509042049 41 311 0.0 0.0 0.00 0.00 0.00 78 998.8
20260509041543 41 311 0.0 0.0 0.00 0.00 0.00 78 998.8
20260509041038 41 311 0.0 0.0 0.00 0.00 0.00 78 998.8
20260509040532 41 311 0.0 0.0 0.00 0.00 0.00 79 998.9
20260509040026 41 311 0.0 0.0 0.00 0.00 0.00 78 998.8
20260509035524 42 311 0.0 0.0 0.00 0.00 0.00 78 998.7
20260509035023 42 311 0.0 0.0 0.00 0.00 0.00 77 998.7
20260509034522 42 311 0.0 0.0 0.00 0.00 0.00 77 998.5
20260509034022 42 311 0.0 0.0 0.00 0.00 0.00 77 998.5
20260509033523 42 311 0.0 0.0 0.00 0.00 0.00 77 998.5
20260509032524 43 311 0.0 0.0 0.00 0.00 0.00 76 998.4
20260509032024 43 311 0.0 0.0 0.00 0.00 0.00 76 998.3
20260509030518 44 311 0.0 1.0 0.00 0.00 0.00 74 998.2
20260509025518 44 311 0.0 0.0 0.00 0.00 0.00 75 998.2
20260509025019 44 311 0.0 0.0 0.00 0.00 0.00 74 998.1
20260509024019 44 311 0.0 0.0 0.00 0.00 0.00 73 998.1
20260509023519 44 311 0.0 0.0 0.00 0.00 0.00 73 998.1
20260509023020 45 311 0.0 1.0 0.00 0.00 0.00 73 998.0
20260509022513 45 311 0.0 1.0 0.00 0.00 0.00 73 998.0
20260509022007 45 311 0.0 0.0 0.00 0.00 0.00 73 998.0
20260509021501 45 311 0.0 1.0 0.00 0.00 0.00 73 998.0
20260509020448 45 311 0.0 0.0 0.00 0.00 0.00 71 997.8
20260509015942 45 311 0.0 0.0 0.00 0.00 0.00 71 997.7
20260509014931 45 311 0.0 0.0 0.00 0.00 0.00 69 997.6
20260509014424 46 311 0.0 0.0 0.00 0.00 0.00 70 997.5
20260509012907 46 311 0.0 1.0 0.00 0.00 0.00 68 997.3
20260509011854 47 311 0.0 1.0 0.00 0.00 0.00 67 997.1
20260509011349 47 311 0.0 1.0 0.00 0.00 0.00 66 997.0
20260509010842 47 311 0.0 0.0 0.00 0.00 0.00 67 996.9
20260509010341 47 311 0.0 0.0 0.00 0.00 0.00 66 996.8
20260509005826 48 311 0.0 0.0 0.00 0.00 0.00 66 996.7
20260509004815 48 311 0.0 0.0 0.00 0.00 0.00 63 996.6
20260509003803 49 311 0.0 0.0 0.00 0.00 0.00 63 996.4
20260509003257 49 311 0.0 1.0 0.00 0.00 0.00 62 996.2
20260509002751 49 311 0.0 1.0 0.00 0.00 0.00 61 996.2
20260509002245 50 311 0.0 1.0 0.00 0.00 0.00 59 996.2
20260509001738 50 311 0.0 1.0 0.00 0.00 0.00 59 996.2
20260509001233 50 311 0.0 2.0 0.00 0.00 0.00 58 996.1
20260509000727 50 311 0.0 2.0 0.00 0.00 0.00 55 996.0
20260509000221 51 311 0.0 2.0 0.00 0.00 0.00 56 995.9
20260508235714 51 311 0.0 2.0 0.00 0.00 0.00 55 995.7
20260508235209 51 311 0.0 1.0 0.00 0.00 0.00 54 995.7
20260508234703 51 311 0.0 2.0 0.00 0.00 0.00 54 995.7
20260508233650 52 311 0.0 2.0 0.00 0.00 0.00 52 995.4
20260508232638 53 311 1.0 2.0 0.00 0.00 0.00 49 995.3
20260508232132 53 311 1.0 2.0 0.00 0.00 0.00 49 995.2
20260508231627 54 311 1.0 3.0 0.00 0.00 0.00 48 995.2
20260508230615 54 311 2.0 3.0 0.00 0.00 0.00 46 995.1
20260508230109 54 311 1.0 4.0 0.00 0.00 0.00 45 995.0
20260508225602 54 312 0.0 4.0 0.00 0.00 0.00 46 995.0
20260508225056 54 0 0.0 2.0 0.00 0.00 0.00 44 995.0
20260508224046 55 0 1.0 2.0 0.00 0.00 0.00 43 994.9
20260508223032 55 11 0.0 1.0 0.00 0.00 0.00 42 994.9
20260508222527 55 11 0.0 1.0 0.00 0.00 0.00 40 994.8
20260508222021 56 12 0.0 0.0 0.00 0.00 0.00 40 994.8
20260508221009 56 12 1.0 2.0 0.00 0.00 0.00 39 994.8
20260508220503 56 92 1.0 3.0 0.00 0.00 0.00 39 994.7
20260508215956 56 92 1.0 3.0 0.00 0.00 0.00 40 994.6
20260508214438 57 326 2.0 4.0 0.00 0.00 0.00 37 994.5
20260508213436 57 323 2.0 4.0 0.00 0.00 0.00 37 994.5
20260508212936 57 305 2.0 5.0 0.00 0.00 0.00 37 994.5
20260508211434 57 53 1.0 3.0 0.00 0.00 0.00 39 994.5